Middlesboro, KY

7:07 PM CDT on July 27, 2017 (GMT -0500)
Middlesboro

Weather History for K1A6 - August, 2014

Change the Weather History Date:

Wednesday, August 20, 2014

  Actual Average (KLOZ) Record (KLOZ)
Temperature  
Mean Temperature 76 °F -  
Max Temperature 88 °F 84 °F 98 °F (1983)
Min Temperature 66 °F 63 °F 54 °F (1976)
Cooling Degree Days 11    
Growing Degree Days 26 (Base 50)    
Moisture  
Dew Point 69 °F    
Average Humidity 89    
Maximum Humidity 100    
Minimum Humidity 65    
Precipitation  
Precipitation 0.48 in - - ()
Sea Level Pressure  
Sea Level Pressure 30.04 in    
Wind  
Wind Speed 2 mph (SSE)    
Max Wind Speed 14 mph    
Max Gust Speed 25 mph    
Visibility 7 miles    
Events Fog , Rain , Thunderstorm    
Averages and records for this station are not official NWS values.
T = Trace of Precipitation, MM = Missing Value Source: NWS Daily Summary

Daily Weather History Graph

Daily Weather History Graph

Search for Another Location

Airport or City:

Trip Planner

Search our weather history database for the weather conditions in past years. The results will help you decide how hot, cold, wet, or windy it might be!

Date:

Astronomy

Aug. 20, 2014 Rise Set
Actual Time 5:56 AM CDT 7:19 PM CDT
Civil Twilight 5:29 AM CDT 7:46 PM CDT
Nautical Twilight 4:56 AM CDT 8:18 PM CDT
Astronomical Twilight 4:22 AM CDT 8:52 PM CDT
Moon 1:38 AM CDT (8/20) 4:00 PM CDT (8/20)
Length of Visible Light 14h 17m
Length of Day
13h 23m
Waning Crescent, 20% of the Moon is Illuminated
Aug 20
Waning Crescent
Aug 25
New
Sep 2
First Quarter
Sep 8
Full
Sep 15
Last Quarter

Hourly Weather History & Observations

Time (CDT) Temp. Heat Index Dew Point Humidity Pressure Visibility Wind Dir Wind Speed Gust Speed Precip Events Conditions
12:35 AM 67.6 °F - 67.1 °F 98% 29.99 in 5.0 mi Calm Calm - N/A   Clear
12:55 AM 66.9 °F - 66.2 °F 98% 29.98 in 5.0 mi Calm Calm - N/A   Scattered Clouds
1:15 AM 67.1 °F - 66.2 °F 97% 29.97 in 7.0 mi Calm Calm - N/A   Scattered Clouds
1:35 AM 66.7 °F - 66.6 °F 99% 29.96 in 5.0 mi Calm Calm - N/A   Scattered Clouds
1:55 AM 66.6 °F - 66.2 °F 99% 29.96 in 5.0 mi Calm Calm - N/A   Mostly Cloudy
2:15 AM 66.9 °F - 66.6 °F 99% 29.95 in 5.0 mi Calm Calm - N/A   Mostly Cloudy
2:35 AM 66.7 °F - 66.0 °F 98% 29.95 in 5.0 mi Calm Calm - N/A   Mostly Cloudy
2:55 AM 67.1 °F - 66.6 °F 98% 29.95 in 5.0 mi Calm Calm - N/A   Overcast
3:15 AM 66.6 °F - 66.4 °F 99% 29.96 in 3.0 mi Calm Calm - N/A   Overcast
3:35 AM 66.4 °F - 66.4 °F 100% 29.96 in 0.2 mi Calm Calm - N/A Fog Fog
3:55 AM 66.4 °F - 66.4 °F 100% 29.96 in 0.5 mi Calm Calm - N/A Fog Fog
4:15 AM 66.4 °F - 66.4 °F 100% 29.96 in 0.5 mi Calm Calm - N/A Fog Fog
4:35 AM 66.6 °F - 66.6 °F 100% 29.97 in 0.5 mi Calm Calm - N/A Fog Fog
4:55 AM 66.9 °F - 66.9 °F 100% 29.97 in 1.2 mi Calm Calm - N/A   Overcast
5:15 AM 66.7 °F - 66.7 °F 100% 29.98 in 4.0 mi Calm Calm - N/A   Overcast
5:35 AM 66.6 °F - 66.6 °F 100% 29.98 in 5.0 mi Calm Calm - N/A   Mostly Cloudy
5:55 AM 66.4 °F - 66.2 °F 99% 29.98 in 4.0 mi Calm Calm - N/A Thunderstorm Clear
6:15 AM 66.2 °F - 66.2 °F 100% 29.99 in 4.0 mi Calm Calm - N/A   Scattered Clouds
6:35 AM 66.2 °F - 66.2 °F 100% 30.00 in 4.0 mi Calm Calm - N/A   Mostly Cloudy
6:55 AM 66.6 °F - 66.2 °F 99% 30.01 in 5.0 mi Calm Calm - N/A   Mostly Cloudy
7:15 AM 68.2 °F - 67.1 °F 96% 30.02 in 5.0 mi Calm Calm - N/A   Overcast
7:35 AM 69.6 °F - 68.0 °F 95% 30.02 in 7.0 mi Calm Calm - N/A   Overcast
7:55 AM 70.9 °F - 68.4 °F 92% 30.02 in 10.0 mi Calm Calm - N/A   Mostly Cloudy
8:15 AM 71.8 °F - 68.7 °F 90% 30.02 in 10.0 mi Calm Calm - N/A   Mostly Cloudy
8:35 AM 73.4 °F - 69.8 °F 88% 30.03 in 10.0 mi Calm Calm - N/A   Mostly Cloudy
8:55 AM 75.4 °F - 71.1 °F 86% 30.02 in 10.0 mi Calm Calm - N/A Thunderstorm Mostly Cloudy
9:15 AM 77.0 °F - 71.8 °F 84% 30.02 in 10.0 mi NNE 3.5 mph - N/A   Overcast
9:35 AM 79.9 °F - 72.1 °F 77% 30.02 in 10.0 mi SSW 3.5 mph - N/A   Mostly Cloudy
9:55 AM 81.0 °F 85.2 °F 72.1 °F 74% 30.04 in 10.0 mi SE 3.5 mph - N/A   Scattered Clouds
10:15 AM 77.9 °F - 71.6 °F 81% 30.05 in 10.0 mi SSE 8.1 mph - N/A   Mostly Cloudy
10:35 AM 78.3 °F - 71.8 °F 80% 30.05 in 10.0 mi South 10.4 mph 16.1 mph N/A   Mostly Cloudy
10:55 AM 79.3 °F - 72.3 °F 79% 30.05 in 7.0 mi South 10.4 mph - N/A   Scattered Clouds
11:15 AM 79.7 °F - 72.1 °F 78% 30.05 in 10.0 mi South 9.2 mph - N/A   Clear
11:35 AM 81.5 °F 86.3 °F 72.7 °F 74% 30.05 in 10.0 mi South 9.2 mph - N/A   Scattered Clouds
12:15 PM 82.8 °F 88.2 °F 72.5 °F 71% 30.05 in 10.0 mi South 5.8 mph - N/A   Scattered Clouds
12:35 PM 84.4 °F 91.0 °F 73.2 °F 69% 30.04 in 10.0 mi South 6.9 mph - N/A   Scattered Clouds
12:55 PM 83.3 °F 89.3 °F 72.9 °F 71% 30.03 in 10.0 mi South 6.9 mph - N/A   Mostly Cloudy
1:15 PM 85.8 °F 93.4 °F 73.6 °F 67% 30.03 in 10.0 mi South 6.9 mph - N/A   Mostly Cloudy
1:35 PM 86.0 °F 93.8 °F 73.8 °F 67% 30.02 in 10.0 mi South 5.8 mph - N/A   Mostly Cloudy
1:55 PM 86.0 °F 93.8 °F 73.8 °F 67% 30.02 in 10.0 mi SSW 4.6 mph - N/A   Mostly Cloudy
2:15 PM 85.8 °F 93.4 °F 73.6 °F 67% 30.01 in 10.0 mi SSW 5.8 mph - N/A   Mostly Cloudy
2:35 PM 85.5 °F 92.6 °F 73.2 °F 67% 30.00 in 10.0 mi South 3.5 mph - N/A   Mostly Cloudy
2:50 PM 86.2 °F 93.8 °F 73.4 °F 66% 30.00 in 10.0 mi South 4.6 mph - N/A   Scattered Clouds
3:15 PM 84.4 °F 89.7 °F 71.6 °F 65% 29.99 in 10.0 mi SSE 6.9 mph - N/A   Mostly Cloudy
3:55 PM 79.0 °F - 68.2 °F 69% 30.03 in 4.0 mi East 13.8 mph 25.3 mph 0.01 in Rain , Thunderstorm Heavy Thunderstorms and Rain
4:15 PM 71.1 °F - 67.8 °F 89% 30.05 in 10.0 mi South 8.1 mph - 0.01 in Rain , Thunderstorm Light Thunderstorms and Rain
4:35 PM 75.0 °F - 68.5 °F 80% 30.03 in 10.0 mi East 6.9 mph - 0.01 in   Scattered Clouds
4:55 PM 75.6 °F - 69.3 °F 81% 30.03 in 10.0 mi NE 5.8 mph - 0.01 in   Scattered Clouds
5:15 PM 75.0 °F - 69.3 °F 82% 30.05 in 10.0 mi ENE 8.1 mph - N/A   Mostly Cloudy
5:35 PM 73.6 °F - 67.6 °F 82% 30.03 in 7.0 mi Calm Calm - 0.01 in Rain Heavy Rain
5:55 PM 71.4 °F - 69.6 °F 94% 30.07 in 10.0 mi NW 4.6 mph - 0.08 in Rain , Thunderstorm Rain
6:15 PM 70.5 °F - 67.8 °F 91% 30.14 in 4.0 mi NNW 10.4 mph 19.6 mph 0.09 in Rain , Thunderstorm Heavy Thunderstorms and Rain
6:35 PM 69.3 °F - 68.0 °F 96% 30.13 in 1.0 mi SSE 3.5 mph - 0.31 in Rain , Thunderstorm Heavy Thunderstorms and Rain
6:55 PM 69.4 °F - 68.2 °F 96% 30.12 in 7.0 mi Calm Calm - 0.34 in Rain , Thunderstorm Thunderstorms and Rain
7:15 PM 69.1 °F - 68.4 °F 98% 30.14 in 7.0 mi Calm Calm - 0.02 in Rain , Thunderstorm Light Thunderstorms and Rain
7:35 PM 68.7 °F - 68.4 °F 99% 30.13 in 10.0 mi Calm Calm - 0.04 in Rain Light Rain
7:55 PM 68.9 °F - 68.5 °F 99% 30.12 in 10.0 mi Calm Calm - 0.04 in   Clear
8:15 PM 68.9 °F - 68.7 °F 99% 30.14 in 10.0 mi Calm Calm - N/A Rain Light Rain
8:35 PM 68.7 °F - 68.4 °F 99% 30.14 in 10.0 mi Calm Calm - N/A   Scattered Clouds
8:55 PM 68.5 °F - 68.2 °F 99% 30.15 in 10.0 mi Calm Calm - N/A   Scattered Clouds
9:15 PM 68.2 °F - 67.1 °F 96% 30.14 in 10.0 mi Calm Calm - N/A   Clear
9:35 PM 68.2 °F - 67.1 °F 96% 30.14 in 10.0 mi Calm Calm - N/A   Clear
9:55 PM 67.8 °F - 67.6 °F 99% 30.14 in 10.0 mi Calm Calm - N/A   Clear
10:15 PM 67.5 °F - 67.5 °F 100% 30.14 in 7.0 mi Calm Calm - N/A   Scattered Clouds
10:35 PM 67.3 °F - 67.3 °F 100% 30.14 in 5.0 mi Calm Calm - N/A   Scattered Clouds
10:55 PM 67.1 °F - 67.1 °F 100% 30.14 in 7.0 mi Calm Calm - N/A   Scattered Clouds
11:15 PM 66.7 °F - 66.4 °F 99% 30.14 in 10.0 mi Calm Calm - N/A   Clear
11:35 PM 66.6 °F - 66.0 °F 98% 30.14 in 10.0 mi Calm Calm - N/A   Clear
11:55 PM 66.4 °F - 66.4 °F 100% 30.14 in 7.0 mi Calm Calm - N/A   Clear